Location: Michelbach Markt
(48.1000°N, 15.7500°E)
Time: 12:55:17
(UTC+01:00)

X-37B - Pass Details

Date: 09 December 2023
Orbit: 277 x 277 km, 45.0° (Epoch: 01 November)

Event Time Altitude Azimuth Distance (km) Brightness Sun altitude
Rises 18:07:07 0° 267° (W) 1,917 5.6 -19.7°
Reaches altitude 10° 18:09:37 10° 239° (WSW) 1,101 3.9 -20.1°
Maximum altitude 18:10:59 14° 205° (SSW) 927 2.9 -20.3°
Enters shadow 18:11:17 13° 196° (SSW) 936 2.8 -20.4°
